2019.03.15,04:19:42,20.10,21.00,21.06,20.50,19.69,20.10,21.54,100088,100262.02,21.50
2019.03.15,04:19:51,20.20,21.06,21.00,20.44,19.75,20.10,21.57,100095,100262.05,21.30
2019.03.15,04:20:02,20.20,21.06,21.06,20.44,19.81,20.10,21.59,100096,100262.20,21.30
2019.03.15,04:20:12,20.20,21.06,21.00,20.50,19.81,20.10,21.61,100095,100262.01,21.20
2019.03.15,04:20:23,20.20,20.94,21.00,20.44,19.88,20.20,21.61,100092,100259.99,21.10
2019.03.15,04:20:33,20.30,21.00,20.94,20.38,19.81,20.10,21.62,100087,100256.72,21.10
2019.03.15,04:20:43,20.30,21.00,21.06,20.44,19.81,20.20,21.64,100093,100262.39,21.10
2019.03.15,04:20:53,20.30,21.00,21.00,20.44,19.88,20.20,21.65,100093,100257.48,21.00
2019.03.15,04:21:04,20.30,20.81,21.00,20.38,19.88,20.10,21.67,100095,100259.20,20.90
2019.03.15,04:21:14,20.30,20.81,20.94,20.38,19.88,20.10,21.68,100094,100264.16,20.80
2019.03.15,04:21:25,20.30,20.81,21.00,20.31,19.88,20.10,21.68,100095,100263.19,20.80
2019.03.15,04:21:35,20.30,20.88,21.00,20.31,19.88,20.10,21.69,100096,100261.61,20.50
2019.03.15,04:21:44,20.30,20.94,20.88,20.25,19.88,20.10,21.70,100095,100263.30,20.50
2019.03.15,04:21:55,20.30,20.81,21.00,20.25,19.88,20.10,21.71,100099,100265.39,20.50
2019.03.15,04:22:05,20.40,20.81,21.06,20.19,19.88,20.10,21.70,100093,100262.33,20.40
2019.03.15,04:22:16,20.30,20.81,21.00,20.19,19.88,20.10,21.72,100099,100265.97,20.40
2019.03.15,04:22:26,20.30,20.81,20.94,20.13,19.88,20.10,21.70,100102,100261.45,20.30
2019.03.15,04:22:37,20.20,20.75,20.81,20.13,19.88,20.10,21.71,100101,100264.92,20.30
2019.03.15,04:22:46,20.30,20.75,20.75,20.13,19.88,20.10,21.72,100097,100263.45,20.20
2019.03.15,04:22:57,20.30,20.75,20.88,20.13,19.88,20.10,21.72,100100,100262.61,20.20
2019.03.15,04:23:07,20.30,20.69,20.69,20.06,19.81,20.10,21.72,100098,100264.63,20.10
2019.03.15,04:23:18,20.30,20.69,20.81,20.06,19.81,20.10,21.72,100096,100265.03,20.20
2019.03.15,04:23:28,20.20,20.69,20.69,20.00,19.88,20.10,21.72,100098,100266.14,20.00
2019.03.15,04:23:38,20.30,20.69,20.81,20.00,19.81,20.10,21.72,100099,100265.30,20.00
2019.03.15,04:23:48,20.30,20.69,20.81,20.00,19.81,20.10,21.71,100099,100264.42,20.00
2019.03.15,04:23:58,20.30,20.56,20.88,20.00,19.81,20.10,21.72,100098,100264.29,20.00
2019.03.15,04:24:09,20.30,20.63,20.81,20.00,19.75,20.00,21.72,100093,100265.97,20.00
2019.03.15,04:24:19,20.20,20.69,20.75,20.00,19.81,20.00,21.72,100096,100265.80,19.90
2019.03.15,04:24:30,20.20,20.63,20.88,20.00,19.75,20.00,21.72,100098,100267.83,19.90
2019.03.15,04:24:40,20.30,20.56,20.88,19.94,19.75,20.00,21.72,100095,100268.84,19.90
2019.03.15,04:24:50,20.30,20.63,20.75,20.00,19.81,20.00,21.71,100091,100262.36,19.90
2019.03.15,04:25:00,20.20,20.63,20.75,19.94,19.75,20.00,21.71,100096,100265.91,19.80
2019.03.15,04:25:11,20.30,20.50,20.75,19.94,19.75,20.00,21.71,100096,100268.26,19.80
2019.03.15,04:25:21,20.20,20.56,20.69,19.94,19.75,20.00,21.72,100094,100265.48,19.90
2019.03.15,04:25:31,20.20,20.56,20.69,19.94,19.75,20.00,21.71,100101,100266.58,19.80
2019.03.15,04:25:42,20.20,20.56,20.63,19.88,19.69,20.00,21.72,100101,100270.36,19.80
2019.03.15,04:25:51,20.20,20.50,20.75,19.88,19.75,20.00,21.71,100093,100264.89,19.80
2019.03.15,04:26:02,20.20,20.56,20.75,19.88,19.69,20.00,21.71,100091,100264.89,19.80
2019.03.15,04:26:12,20.20,20.56,20.63,19.88,19.69,20.00,21.71,100100,100266.58,19.90
2019.03.15,04:26:23,20.20,20.56,20.50,19.88,19.75,20.00,21.70,100092,100270.25,19.80
2019.03.15,04:26:33,20.20,20.56,20.56,19.88,19.69,20.00,21.70,100100,100266.50,19.80
2019.03.15,04:26:44,20.20,20.44,20.50,19.88,19.69,20.00,21.70,100100,100266.33,19.80
2019.03.15,04:26:53,20.20,20.50,20.56,19.81,19.69,20.00,21.70,100097,100265.66,19.70
2019.03.15,04:27:04,20.20,20.56,20.63,19.81,19.63,20.00,21.70,100093,100264.48,19.70
2019.03.15,04:27:14,20.20,20.56,20.63,19.88,19.69,20.00,21.69,100099,100263.56,19.70
2019.03.15,04:27:24,20.10,20.50,20.63,19.81,19.63,20.00,21.69,100097,100264.13,19.70
2019.03.15,04:27:35,20.10,20.56,20.69,19.88,19.63,19.90,21.69,100093,100263.22,19.60
2019.03.15,04:27:45,20.20,20.50,20.44,19.81,19.69,19.90,21.69,100093,100263.45,19.70
2019.03.15,04:27:55,20.20,20.50,20.50,19.81,19.63,19.90,21.69,100092,100264.23,19.70
2019.03.15,04:28:05,20.20,20.50,20.56,19.88,19.63,19.90,21.69,100092,100263.73,19.60
2019.03.15,04:28:16,20.20,20.50,20.44,19.81,19.56,19.90,21.68,100092,100258.44,19.70
2019.03.15,04:28:26,20.20,20.44,20.63,19.81,19.56,19.90,21.69,100094,100265.08,19.70
2019.03.15,04:28:37,20.20,20.50,20.56,19.81,19.63,19.90,21.67,100093,100262.78,19.70
2019.03.15,04:28:47,20.10,20.44,20.56,19.81,19.56,19.90,21.66,100089,100262.75,19.70
2019.03.15,04:28:56,20.10,20.38,20.50,19.81,19.56,19.90,21.66,100093,100262.41,19.60
2019.03.15,04:29:07,20.10,20.50,20.56,19.81,19.56,19.90,21.66,100094,100260.55,19.70
2019.03.15,04:29:17,20.10,20.44,20.63,19.81,19.63,19.90,21.68,100091,100262.48,19.60
2019.03.15,04:29:28,20.10,20.50,20.56,19.75,19.56,19.90,21.65,100085,100258.15,19.70
2019.03.15,04:29:38,20.10,20.50,20.56,19.81,19.56,19.90,21.65,100087,100257.81,19.70
2019.03.15,04:29:49,20.10,20.44,20.63,19.81,19.56,19.90,21.66,100089,100263.25,19.70
2019.03.15,04:29:58,20.10,20.50,20.56,19.81,19.56,19.90,21.64,100091,100256.87,19.70
2019.03.15,04:30:09,20.10,20.50,20.56,19.81,19.56,19.90,21.64,100085,100257.71,19.70
2019.03.15,04:30:19,20.10,20.44,20.50,19.81,19.50,19.90,21.64,100093,100256.83,19.70
2019.03.15,04:30:30,20.10,20.44,20.50,19.75,19.50,19.90,21.65,100085,100256.73,19.70
2019.03.15,04:30:40,20.10,20.38,20.50,19.81,19.50,19.90,21.64,100080,100259.23,19.70
2019.03.15,04:30:51,20.20,20.44,20.38,19.75,19.50,19.90,21.63,100085,100257.13,19.60
2019.03.15,04:31:00,20.10,20.50,20.50,19.75,19.50,19.90,21.64,100085,100258.22,19.70
2019.03.15,04:31:10,20.00,18.88,19.31,18.25,19.00,18.90,21.16,100089,100258.34,19.00
2019.03.15,04:31:21,19.80,17.13,17.69,16.19,18.06,18.00,20.59,100107,100275.81,17.40
2019.03.15,04:31:31,19.20,15.38,16.00,12.94,17.06,16.00,19.12,100120,100285.73,16.00
2019.03.15,04:31:42,18.50,14.13,14.56,10.88,16.38,15.20,18.34,100118,100283.23,14.90
2019.03.15,04:31:52,17.90,13.06,13.50,9.31,15.69,14.50,17.92,100120,100287.51,14.20
2019.03.15,04:32:02,17.40,12.00,12.69,8.50,14.81,13.70,17.45,100116,100289.66,14.10
2019.03.15,04:32:12,16.80,10.94,11.19,6.75,14.06,12.30,16.52,100128,100287.73,13.80
2019.03.15,04:32:23,16.20,9.88,10.13,5.75,13.06,11.80,16.42,100116,100282.75,13.60
2019.03.15,04:32:33,15.60,9.19,9.13,4.63,12.00,10.60,15.33,100116,100280.88,13.50
2019.03.15,04:32:43,15.00,8.06,8.13,3.44,11.19,9.80,14.63,100114,100282.83,13.40
2019.03.15,04:32:54,14.30,7.25,7.31,2.44,10.50,9.30,14.22,100121,100277.97,13.50
2019.03.15,04:33:04,13.80,6.88,6.88,2.13,9.50,8.90,14.18,100121,100280.96,13.60
2019.03.15,04:33:15,13.30,6.31,6.44,1.75,8.88,8.20,13.74,100123,100282.18,13.80
2019.03.15,04:33:25,12.90,5.81,6.00,1.38,8.31,7.70,13.43,100124,100278.04,14.10
2019.03.15,04:33:36,12.50,5.31,5.25,1.13,7.81,7.40,13.07,100109,100277.77,14.40
2019.03.15,04:33:46,12.20,4.75,4.75,0.69,7.31,7.00,12.37,100127,100283.95,14.70
2019.03.15,04:33:56,11.60,4.44,4.13,0.25,6.81,6.40,11.91,100121,100279.38,15.10
2019.03.15,04:34:07,11.20,4.13,4.06,0.06,6.25,6.20,11.72,100117,100281.96,15.40
2019.03.15,04:34:17,10.90,3.94,3.75,0.06,5.88,6.00,11.58,100117,100280.18,15.50
2019.03.15,04:34:28,10.60,3.56,3.38,-0.13,5.50,5.60,11.31,100122,100280.50,15.90
2019.03.15,04:34:38,10.30,3.38,3.44,-0.13,5.13,5.60,11.25,100123,100281.11,16.10
2019.03.15,04:34:49,10.10,3.13,3.25,-0.31,4.75,5.20,10.93,100119,100279.84,16.40
2019.03.15,04:34:59,9.90,2.75,2.81,-0.63,4.38,5.00,10.40,100124,100276.66,17.20
2019.03.15,04:35:10,9.40,2.38,2.25,-0.94,3.94,4.50,9.57,100122,100273.47,17.90
2019.03.15,04:35:20,9.00,1.69,1.88,-1.38,3.56,4.10,8.97,100125,100272.54,18.30
2019.03.15,04:35:30,8.60,1.63,1.63,-1.50,3.19,3.80,8.83,100120,100271.77,18.40
2019.03.15,04:35:41,8.30,1.38,1.50,-1.81,2.88,3.40,8.48,100126,100273.84,18.70
2019.03.15,04:35:51,8.00,1.50,1.44,-1.50,2.38,3.60,8.62,100121,100272.05,19.10
2019.03.15,04:36:02,7.70,1.44,1.50,-1.69,2.00,3.10,8.21,100127,100273.53,19.60
2019.03.15,04:36:12,7.60,1.38,1.44,-1.75,1.75,3.00,8.14,100127,100273.11,19.80
2019.03.15,04:36:22,7.40,1.19,1.06,-1.75,1.44,3.00,8.06,100124,100273.25,20.20
2019.03.15,04:36:33,7.20,1.00,0.94,-1.94,1.19,2.70,7.81,100116,100276.02,20.60
2019.03.15,04:36:43,7.00,1.00,1.13,-1.94,1.06,2.80,7.67,100121,100275.13,21.00
2019.03.15,04:36:54,6.80,0.81,1.06,-2.00,0.81,2.70,7.65,100132,100279.36,21.30
2019.03.15,04:37:04,6.70,0.94,0.88,-2.00,0.56,2.50,7.44,100126,100275.44,21.40
2019.03.15,04:37:15,6.40,0.63,0.88,-1.94,0.38,2.30,7.12,100122,100272.45,21.50
2019.03.15,04:37:25,6.30,0.44,0.44,-2.06,0.19,2.30,7.04,100132,100276.27,21.80
2019.03.15,04:37:35,6.10,0.25,0.13,-2.38,-0.06,2.00,6.42,100123,100275.02,22.10
2019.03.15,04:37:46,5.70,0.00,0.19,-2.50,-0.19,1.90,6.26,100129,100274.72,22.30
2019.03.15,04:37:56,5.60,-0.06,0.19,-2.63,-0.38,1.60,6.11,100128,100272.77,22.50
2019.03.15,04:38:07,5.30,-0.06,0.00,-2.63,-0.63,1.50,5.85,100126,100268.83,22.80
2019.03.15,04:38:17,5.10,-0.19,-0.13,-2.88,-0.81,1.20,5.59,100138,100266.17,23.20
2019.03.15,04:38:28,4.90,-0.25,-0.25,-3.00,-1.00,1.00,5.42,100135,100270.27,23.60
2019.03.15,04:38:37,4.70,-0.44,-0.38,-3.13,-1.19,0.80,5.07,100134,100266.66,23.80
2019.03.15,04:38:47,4.50,-0.69,-0.69,-3.19,-1.25,0.60,4.84,100133,100264.25,24.00
2019.03.15,04:38:58,4.30,-0.63,-0.69,-3.38,-1.44,0.40,4.57,100129,100268.30,24.30
2019.03.15,04:39:08,4.10,-0.81,-0.81,-3.44,-1.50,0.20,4.41,100132,100270.50,24.50
2019.03.15,04:39:19,3.90,-0.94,-1.06,-3.44,-1.63,0.10,4.27,100126,100265.95,24.70
2019.03.15,04:39:29,3.60,-1.00,-0.94,-3.50,-1.81,0.10,4.24,100132,100262.70,25.00
2019.03.15,04:39:38,3.60,-1.06,-1.13,-3.50,-1.88,0.00,4.22,100134,100267.99,25.20
2019.03.15,04:39:49,3.50,-1.06,-1.13,-3.31,-2.00,0.10,4.26,100127,100268.19,25.30
2019.03.15,04:39:59,3.40,-1.06,-1.00,-3.38,-2.06,-0.10,4.02,100135,100269.23,25.50
2019.03.15,04:40:10,3.30,-1.13,-1.13,-3.50,-2.31,-0.30,3.87,100135,100268.31,25.70
2019.03.15,04:40:20,3.10,-1.13,-1.31,-3.63,-2.25,-0.50,3.66,100135,100267.16,25.80
2019.03.15,04:40:31,3.00,-1.31,-1.13,-3.63,-2.31,-0.50,3.54,100136,100265.66,26.00
2019.03.15,04:40:40,2.90,-1.31,-1.13,-3.69,-2.44,-0.60,3.35,100133,100266.69,26.40
2019.03.15,04:40:50,2.80,-1.44,-1.31,-3.75,-2.50,-0.60,3.22,100136,100263.72,26.50
2019.03.15,04:41:01,2.60,-1.50,-1.44,-3.81,-2.50,-0.70,2.95,100137,100272.05,26.70
2019.03.15,04:41:11,2.40,-1.56,-1.38,-3.88,-2.56,-0.80,2.83,100134,100267.41,26.90
2019.03.15,04:41:22,2.30,-1.69,-1.50,-3.88,-2.63,-1.00,2.66,100140,100269.14,27.10
2019.03.15,04:41:32,2.10,-1.75,-1.63,-4.06,-2.75,-1.10,2.47,100136,100265.36,27.30
2019.03.15,04:41:42,2.10,-1.81,-1.75,-4.06,-2.81,-1.10,2.45,100138,100265.23,27.50
2019.03.15,04:41:52,2.10,-2.06,-1.75,-4.00,-2.88,-1.20,2.36,100139,100263.88,27.70
2019.03.15,04:42:02,1.90,-2.06,-1.75,-4.19,-2.94,-1.40,2.04,100136,100264.13,27.90
2019.03.15,04:42:13,1.70,-2.13,-1.94,-4.19,-2.94,-1.40,1.94,100135,100259.84,28.00
2019.03.15,04:42:23,1.50,-2.38,-2.19,-4.31,-3.00,-1.60,1.64,100129,100266.00,28.30
2019.03.15,04:42:34,1.40,-2.31,-2.06,-4.13,-3.06,-1.50,1.69,100136,100266.31,28.50
2019.03.15,04:42:43,1.40,-2.06,-1.94,-4.13,-3.19,-1.50,1.68,100138,100266.23,28.70
2019.03.15,04:42:54,1.20,-2.13,-1.94,-4.19,-3.25,-1.70,1.51,100143,100264.16,29.00
2019.03.15,04:43:04,1.10,-2.25,-2.25,-4.25,-3.19,-1.80,1.39,100136,100264.16,29.40
2019.03.15,04:43:15,1.00,-2.44,-2.13,-4.31,-3.31,-1.80,1.35,100134,100263.20,29.70
2019.03.15,04:43:25,0.90,-2.44,-2.13,-4.38,-3.31,-1.90,1.25,100131,100264.55,29.90
2019.03.15,04:43:35,0.90,-2.38,-2.31,-4.25,-3.38,-1.90,1.29,100128,100262.83,30.00
2019.03.15,04:43:45,0.80,-2.25,-2.06,-4.25,-3.38,-1.90,1.18,100138,100264.80,30.20
2019.03.15,04:43:55,0.70,-2.25,-2.13,-4.31,-3.38,-2.00,1.00,100143,100262.02,30.50
2019.03.15,04:44:06,0.70,-2.44,-2.19,-4.25,-3.44,-2.00,1.01,100139,100260.95,30.60
2019.03.15,04:44:16,0.50,-2.13,-2.06,-4.19,-3.44,-2.00,1.00,100134,100263.73,30.80
2019.03.15,04:44:27,0.50,-2.44,-2.19,-4.31,-3.50,-2.10,0.84,100145,100255.81,31.20
2019.03.15,04:44:37,0.30,-2.50,-2.25,-4.44,-3.56,-2.20,0.70,100143,100261.27,31.40
2019.03.15,04:44:46,0.40,-2.56,-2.19,-4.44,-3.63,-2.30,0.62,100141,100261.84,31.60
2019.03.15,04:44:57,0.20,-2.44,-2.31,-4.56,-3.69,-2.40,0.47,100135,100257.48,31.80
2019.03.15,04:45:07,0.20,-2.38,-2.19,-4.50,-3.69,-2.30,0.54,100131,100260.91,32.00
2019.03.15,04:45:18,0.00,-2.44,-2.31,-4.44,-3.69,-2.40,0.43,100132,100264.31,32.10
2019.03.15,04:45:28,0.10,-2.63,-2.50,-4.50,-3.75,-2.50,0.33,100146,100258.84,32.40
2019.03.15,04:45:39,0.00,-2.69,-2.44,-4.56,-3.75,-2.50,0.27,100141,100260.55,32.60
2019.03.15,04:45:49,-0.10,-2.56,-2.31,-4.50,-3.81,-2.50,0.24,100146,100262.17,32.80
2019.03.15,04:45:58,-0.20,-2.44,-2.31,-4.44,-3.81,-2.60,0.20,100146,100258.66,33.00
2019.03.15,04:46:09,-0.30,-2.50,-2.44,-4.56,-3.88,-2.60,0.09,100147,100259.75,33.20
2019.03.15,04:46:19,-0.30,-2.56,-2.75,-4.56,-3.88,-2.60,0.04,100137,100259.09,33.40
2019.03.15,04:46:30,-0.40,-2.81,-2.63,-4.63,-3.88,-2.70,0.01,100137,100260.70,33.50
2019.03.15,04:46:40,-0.50,-2.63,-2.44,-4.63,-3.94,-2.70,-0.02,100143,100259.80,33.60
2019.03.15,04:46:51,-0.50,-2.56,-2.69,-4.56,-3.94,-2.70,-0.06,100141,100258.31,33.70
2019.03.15,04:47:00,-0.50,-2.81,-2.69,-4.69,-4.00,-2.80,-0.13,100137,100255.69,33.80
2019.03.15,04:47:11,-0.50,-2.63,-2.81,-4.75,-4.00,-2.90,-0.23,100142,100257.41,33.80
2019.03.15,04:47:21,-0.60,-2.94,-2.63,-4.69,-3.94,-2.90,-0.29,100133,100257.16,34.00
2019.03.15,04:47:32,-0.70,-2.81,-2.69,-4.75,-4.00,-2.90,-0.32,100142,100257.88,34.10
2019.03.15,04:47:42,-0.70,-2.75,-2.88,-4.75,-4.06,-2.90,-0.38,100145,100254.14,34.40
2019.03.15,04:47:51,-0.80,-2.88,-2.75,-4.75,-4.06,-2.90,-0.39,100141,100258.11,34.60
2019.03.15,04:48:02,-0.90,-2.81,-2.75,-4.75,-4.13,-2.90,-0.48,100151,100255.31,34.80
2019.03.15,04:48:12,-0.80,-2.88,-2.94,-4.81,-4.13,-3.00,-0.52,100138,100254.80,35.00
2019.03.15,04:48:23,-0.90,-2.94,-2.88,-4.81,-4.13,-3.00,-0.55,100139,100257.30,35.00
2019.03.15,04:48:33,-1.00,-2.88,-3.06,-4.88,-4.19,-3.00,-0.56,100144,100259.15,35.10
2019.03.15,04:48:44,-1.00,-3.13,-2.88,-4.88,-4.19,-3.00,-0.60,100145,100254.90,35.20
2019.03.15,04:48:53,-1.10,-2.94,-2.88,-4.88,-4.19,-3.00,-0.64,100143,100250.66,35.40
2019.03.15,04:49:04,-1.20,-3.25,-2.94,-4.88,-4.25,-3.10,-0.66,100145,100259.25,35.50
2019.03.15,04:49:14,-1.20,-3.00,-2.88,-4.94,-4.25,-3.10,-0.79,100142,100257.70,35.60
2019.03.15,04:49:25,-1.20,-3.06,-2.88,-4.94,-4.13,-3.10,-0.82,100141,100257.91,35.90
2019.03.15,04:49:35,-1.30,-3.00,-2.94,-4.88,-4.25,-3.10,-0.83,100137,100258.33,36.00
2019.03.15,04:49:46,-1.40,-2.88,-2.81,-4.88,-4.25,-3.10,-0.84,100133,100257.75,36.20
2019.03.15,04:49:55,-1.30,-3.00,-2.88,-4.88,-4.19,-3.20,-0.91,100140,100258.57,36.30
2019.03.15,04:50:05,-1.40,-3.00,-2.88,-4.94,-4.25,-3.20,-0.95,100135,100254.64,36.50
2019.03.15,04:50:16,-1.40,-3.00,-2.81,-5.00,-4.25,-3.30,-1.01,100141,100254.63,36.60
2019.03.15,04:50:26,-1.50,-3.06,-3.06,-5.00,-4.25,-3.30,-1.09,100139,100259.41,36.60
2019.03.15,04:50:37,-1.50,-3.13,-3.06,-5.06,-4.25,-3.30,-1.12,100146,100256.06,36.70
2019.03.15,04:50:47,-1.50,-3.13,-3.19,-5.13,-4.31,-3.30,-1.12,100135,100253.63,36.80
2019.03.15,04:50:57,-1.60,-3.19,-3.13,-5.13,-4.31,-3.40,-1.18,100145,100256.81,36.80
2019.03.15,04:51:07,-1.60,-3.19,-3.25,-5.00,-4.38,-3.40,-1.18,100139,100256.81,37.00
2019.03.15,04:51:18,-1.70,-3.31,-2.94,-5.00,-4.38,-3.40,-1.17,100142,100257.38,37.10
2019.03.15,04:51:28,-1.70,-3.19,-3.25,-5.00,-4.31,-3.40,-1.20,100143,100252.67,37.10
2019.03.15,04:51:39,-1.70,-3.19,-3.13,-5.13,-4.31,-3.40,-1.26,100137,100252.94,37.30
2019.03.15,04:51:49,-1.70,-3.19,-3.25,-5.06,-4.38,-3.40,-1.28,100144,100256.16,37.60
2019.03.15,04:51:58,-1.80,-3.31,-3.19,-5.06,-4.38,-3.40,-1.28,100139,100258.59,37.80
2019.03.15,04:52:09,-1.80,-3.25,-3.25,-5.13,-4.38,-3.50,-1.31,100147,100256.45,37.80
2019.03.15,04:52:19,-1.80,-3.19,-3.19,-5.19,-4.44,-3.50,-1.35,100138,100252.01,38.00
2019.03.15,04:52:30,-1.90,-3.31,-3.38,-5.13,-4.44,-3.50,-1.36,100139,100254.20,38.20
2019.03.15,04:52:40,-1.80,-3.31,-3.13,-5.19,-4.50,-3.50,-1.43,100143,100255.58,38.40
2019.03.15,04:52:51,-1.90,-3.38,-3.19,-5.31,-4.50,-3.70,-1.59,100132,100256.33,38.40
2019.03.15,04:53:00,-2.00,-3.38,-3.31,-5.25,-4.50,-3.70,-1.59,100136,100255.41,38.50
2019.03.15,04:53:11,-2.10,-3.38,-3.31,-5.31,-4.44,-3.70,-1.70,100143,100251.97,38.60
2019.03.15,04:53:21,-2.00,-3.38,-3.44,-5.19,-4.50,-3.70,-1.69,100145,100252.14,38.80
2019.03.15,04:53:32,-2.10,-3.31,-3.19,-5.25,-4.56,-3.70,-1.70,100139,100255.22,39.00
2019.03.15,04:53:42,-2.20,-3.31,-3.44,-5.19,-4.50,-3.70,-1.69,100131,100252.47,39.10
2019.03.15,04:53:52,-2.20,-3.25,-3.31,-5.19,-4.56,-3.70,-1.69,100139,100254.90,39.20
2019.03.15,04:54:02,-2.10,-3.25,-3.31,-5.19,-4.50,-3.70,-1.73,100139,100254.45,39.30
2019.03.15,04:54:12,-2.20,-3.38,-3.44,-5.25,-4.44,-3.80,-1.79,100139,100252.52,39.50
2019.03.15,04:54:23,-2.30,-3.44,-3.25,-5.31,-4.56,-3.80,-1.89,100139,100256.44,39.50
2019.03.15,04:54:33,-2.20,-3.38,-3.38,-5.38,-4.56,-3.80,-1.94,100134,100256.23,39.60
2019.03.15,04:54:44,-2.30,-3.44,-3.38,-5.25,-4.56,-3.90,-1.91,100138,100255.86,39.90
2019.03.15,04:54:54,-2.40,-3.44,-3.31,-5.31,-4.56,-3.80,-1.90,100135,100259.68,40.10
2019.03.15,04:55:04,-2.40,-3.44,-3.56,-5.31,-4.56,-3.90,-1.95,100145,100255.25,40.30
2019.03.15,04:55:14,-2.30,-3.50,-3.31,-5.31,-4.56,-3.90,-1.97,100140,100261.88,40.50
2019.03.15,04:55:25,-2.40,-3.56,-3.44,-5.25,-4.56,-3.90,-1.98,100137,100255.54,40.50
2019.03.15,04:55:35,-2.40,-3.56,-3.44,-5.25,-4.63,-3.90,-1.96,100142,100257.83,40.50
2019.03.15,04:55:45,-2.50,-3.56,-3.44,-5.31,-4.63,-3.90,-1.97,100140,100259.61,40.50
2019.03.15,04:55:56,-2.50,-3.50,-3.63,-5.38,-4.69,-3.90,-2.04,100141,100261.80,40.60
2019.03.15,04:56:05,-2.50,-3.50,-3.69,-5.31,-4.63,-3.90,-2.08,100140,100254.61,40.70
2019.03.15,04:56:16,-2.60,-3.56,-3.56,-5.38,-4.63,-4.00,-2.10,100141,100257.58,40.70
2019.03.15,04:56:26,-2.50,-3.63,-3.38,-5.31,-4.69,-4.00,-2.12,100144,100258.76,40.70
2019.03.15,04:56:37,-2.60,-3.56,-3.69,-5.44,-4.69,-4.00,-2.25,100137,100254.95,40.70
2019.03.15,04:56:47,-2.60,-3.63,-3.50,-5.44,-4.69,-4.00,-2.26,100141,100263.86,40.90
2019.03.15,04:56:58,-2.70,-3.56,-3.50,-5.38,-4.69,-4.00,-2.25,100142,100255.44,40.80
2019.03.15,04:57:07,-2.70,-3.56,-3.56,-5.38,-4.69,-4.00,-2.25,100140,100255.02,40.80
2019.03.15,04:57:18,-2.70,-3.63,-3.44,-5.38,-4.63,-4.10,-2.25,100137,100258.27,40.80
2019.03.15,04:57:28,-2.70,-3.56,-3.69,-5.44,-4.63,-4.10,-2.25,100137,100255.67,40.80
2019.03.15,04:57:38,-2.80,-3.56,-3.44,-5.38,-4.69,-4.10,-2.25,100135,100251.86,40.90
2019.03.15,04:57:49,-2.80,-3.63,-3.50,-5.38,-4.69,-4.10,-2.23,100141,100252.63,40.80
2019.03.15,04:57:59,-2.70,-3.63,-3.63,-5.38,-4.69,-4.10,-2.25,100140,100252.51,40.90
2019.03.15,04:58:09,-2.70,-3.63,-3.50,-5.38,-4.63,-4.10,-2.24,100141,100253.08,41.10
2019.03.15,04:58:19,-2.80,-3.69,-3.50,-5.31,-4.69,-4.10,-2.23,100132,100252.47,41.00
2019.03.15,04:58:30,-2.80,-3.56,-3.63,-5.31,-4.75,-4.10,-2.27,100138,100255.59,41.20
2019.03.15,04:58:40,-2.80,-3.56,-3.44,-5.38,-4.63,-4.10,-2.34,100133,100255.06,41.40
2019.03.15,04:58:51,-2.80,-3.56,-3.69,-5.38,-4.69,-4.10,-2.38,100144,100253.61,41.60
2019.03.15,04:59:01,-2.80,-3.56,-3.56,-5.44,-4.69,-4.10,-2.40,100135,100254.98,41.80
2019.03.15,04:59:10,-2.80,-3.63,-3.69,-5.44,-4.69,-4.10,-2.38,100135,100253.61,41.80
2019.03.15,04:59:21,-2.90,-3.56,-3.75,-5.44,-4.75,-4.20,-2.38,100137,100251.26,41.90
2019.03.15,04:59:31,-2.90,-3.63,-3.63,-5.44,-4.81,-4.20,-2.41,100141,100249.92,42.00
2019.03.15,04:59:42,-2.90,-3.63,-3.44,-5.44,-4.75,-4.20,-2.44,100143,100253.84,42.10
2019.03.15,04:59:52,-2.90,-3.63,-3.88,-5.50,-4.75,-4.20,-2.45,100143,100251.66,42.30
2019.03.15,05:00:03,-2.90,-3.69,-3.50,-5.44,-4.75,-4.20,-2.47,100140,100250.99,42.60
2019.03.15,05:00:12,-2.90,-3.63,-3.75,-5.50,-4.75,-4.20,-2.47,100150,100253.10,42.60
2019.03.15,05:00:23,-2.90,-3.75,-3.81,-5.50,-4.75,-4.20,-2.47,100142,100252.94,42.60
2019.03.15,05:00:33,-3.00,-3.75,-3.63,-5.50,-4.75,-4.20,-2.47,100147,100253.27,42.50
2019.03.15,05:00:44,-3.00,-3.56,-3.69,-5.50,-4.81,-4.20,-2.48,100143,100254.20,42.50
2019.03.15,05:00:54,-3.00,-3.69,-3.81,-5.56,-4.75,-4.20,-2.50,100134,100256.47,42.30
2019.03.15,05:01:05,-3.00,-3.69,-3.69,-5.50,-4.81,-4.20,-2.49,100137,100251.77,42.30
2019.03.15,05:01:14,-3.00,-3.75,-3.75,-5.50,-4.75,-4.20,-2.52,100147,100247.67,42.30
2019.03.15,05:01:24,-3.00,-3.75,-3.69,-5.50,-4.81,-4.20,-2.52,100134,100247.34,42.40
2019.03.15,05:01:35,-3.00,-3.75,-3.81,-5.50,-4.81,-4.20,-2.52,100147,100250.67,42.50
2019.03.15,05:01:45,-3.00,-3.69,-3.69,-5.50,-4.81,-4.20,-2.52,100142,100253.42,42.50
2019.03.15,05:01:56,-3.00,-3.75,-3.69,-5.50,-4.75,-4.20,-2.55,100144,100253.38,42.50
2019.03.15,05:02:06,-3.10,-3.75,-3.75,-5.50,-4.75,-4.20,-2.55,100140,100253.38,42.50
2019.03.15,05:02:16,-3.10,-3.69,-3.75,-5.44,-4.75,-4.20,-2.60,100139,100253.54,42.50
2019.03.15,05:02:26,-3.10,-3.81,-3.88,-5.50,-4.88,-4.30,-2.65,100138,100252.02,42.70
2019.03.15,05:02:37,-3.10,-3.75,-3.81,-5.50,-4.88,-4.30,-2.66,100143,100251.83,43.00
2019.03.15,05:02:47,-3.20,-3.69,-3.56,-5.50,-4.81,-4.30,-2.65,100143,100250.88,42.90
2019.03.15,05:02:58,-3.20,-3.75,-3.69,-5.50,-4.75,-4.30,-2.65,100150,100252.34,42.90
2019.03.15,05:03:08,-3.10,-3.81,-3.75,-5.50,-4.75,-4.30,-2.67,100142,100250.25,43.00
2019.03.15,05:03:17,-3.10,-3.75,-3.75,-5.56,-4.75,-4.30,-2.68,100145,100255.11,43.20
2019.03.15,05:03:28,-3.10,-3.69,-3.63,-5.50,-4.88,-4.30,-2.68,100143,100254.38,43.30
2019.03.15,05:03:38,-3.20,-3.75,-3.63,-5.56,-4.81,-4.30,-2.67,100146,100256.00,43.30
2019.03.15,05:03:49,-3.20,-3.75,-3.69,-5.56,-4.69,-4.30,-2.69,100146,100255.67,43.40
2019.03.15,05:03:59,-3.20,-3.69,-3.94,-5.50,-4.81,-4.30,-2.69,100146,100251.62,43.40
2019.03.15,05:04:10,-3.20,-3.75,-3.81,-5.50,-4.88,-4.40,-2.69,100144,100256.53,43.40
2019.03.15,05:04:19,-3.10,-3.75,-3.69,-5.50,-4.81,-4.40,-2.71,100146,100251.58,43.50
2019.03.15,05:04:30,-3.20,-3.88,-3.75,-5.50,-4.81,-4.40,-2.73,100142,100251.38,43.40
2019.03.15,05:04:40,-3.30,-3.81,-3.81,-5.56,-4.88,-4.40,-2.72,100146,100250.76,43.20
2019.03.15,05:04:51,-3.20,-4.06,-3.81,-5.63,-4.81,-4.40,-2.75,100149,100254.11,43.30
2019.03.15,05:05:01,-3.20,-3.81,-3.94,-5.56,-4.88,-4.40,-2.77,100147,100253.11,43.20
2019.03.15,05:05:12,-3.30,-3.75,-3.63,-5.56,-4.81,-4.40,-2.77,100143,100253.11,43.20
2019.03.15,05:05:21,-3.30,-3.75,-4.06,-5.63,-4.81,-4.40,-2.77,100151,100255.05,43.20
2019.03.15,05:05:31,-3.30,-3.88,-4.00,-5.63,-4.88,-4.40,-2.78,100146,100256.99,43.10
2019.03.15,05:05:42,-3.30,-3.88,-3.81,-5.63,-4.88,-4.40,-2.80,100141,100253.22,43.20
2019.03.15,05:05:52,-3.30,-3.88,-3.88,-5.63,-4.94,-4.40,-2.79,100144,100254.63,43.30
2019.03.15,05:06:03,-3.30,-3.81,-3.94,-5.56,-4.88,-4.40,-2.84,100144,100257.30,43.20
2019.03.15,05:06:13,-3.30,-3.94,-3.81,-5.63,-4.88,-4.40,-2.85,100147,100253.64,43.30
2019.03.15,05:06:23,-3.40,-3.94,-4.06,-5.50,-4.94,-4.40,-2.84,100143,100256.81,43.20
2019.03.15,05:06:33,-3.30,-3.88,-4.00,-5.56,-4.94,-4.40,-2.84,100144,100253.41,43.40
2019.03.15,05:06:44,-3.40,-3.88,-3.88,-5.63,-5.00,-4.40,-2.85,100140,100254.05,43.30
2019.03.15,05:06:54,-3.30,-3.81,-3.81,-5.56,-4.88,-4.40,-2.88,100137,100249.55,43.40
2019.03.15,05:07:05,-3.30,-4.06,-4.00,-5.56,-4.81,-4.40,-2.87,100147,100257.01,43.50
2019.03.15,05:07:15,-3.30,-3.94,-3.81,-5.63,-4.94,-4.40,-2.89,100144,100255.86,43.70
2019.03.15,05:07:24,-3.40,-3.88,-3.94,-5.56,-4.94,-4.50,-2.92,100147,100253.95,43.70
2019.03.15,05:07:35,-3.30,-3.88,-3.81,-5.56,-4.94,-4.50,-2.91,100145,100254.92,43.80
2019.03.15,05:07:45,-3.40,-3.81,-3.94,-5.50,-4.94,-4.40,-2.91,100145,100254.52,43.90
2019.03.15,05:07:56,-3.40,-3.81,-3.75,-5.56,-4.88,-4.50,-2.91,100144,100253.63,43.90